This is the latest recevied weather packets stored in our database for station/object IT9DBI-3. If no packets are shown the sender has not sent any weather packets the latest 10 day(s).
| Time | Temp. | Humidity | Pressure | Rain* | Wind** | Luminosity | Snow |
|---|---|---|---|---|---|---|---|
| 1777938749 | 14.44° C | 85% | 1017.4 hPa | - | - | - | - |
| 1777937547 | 14.44° C | 84% | 1017.5 hPa | - | - | - | - |
| 1777936346 | 15° C | 83% | 1017.6 hPa | - | - | - | - |
| 1777935145 | 15.56° C | 79% | 1017.8 hPa | - | - | - | - |
| 1777933943 | 15.56° C | 79% | 1017.7 hPa | - | - | - | - |
| 1777932742 | 15.56° C | 78% | 1017.8 hPa | - | - | - | - |
| 1777931541 | 16.11° C | 74% | 1018 hPa | - | - | - | - |
| 1777930339 | 15° C | 82% | 1018.1 hPa | - | - | - | - |
| 1777929138 | 15° C | 83% | 1018.2 hPa | - | - | - | - |
| 1777927937 | 14.44° C | 82% | 1018.1 hPa | - | - | - | - |
| 1777926735 | 15.56° C | 77% | 1018.2 hPa | - | - | - | - |
| 1777925534 | 15.56° C | 80% | 1018.6 hPa | - | - | - | - |
| 1777924332 | 15.56° C | 79% | 1018.3 hPa | - | - | - | - |
| 1777923131 | 15.56° C | 85% | 1018.4 hPa | - | - | - | - |
| 1777921930 | 15.56° C | 87% | 1018 hPa | - | - | - | - |
| 1777920727 | 16.11° C | 89% | 1018 hPa | - | - | - | - |
| 1777919525 | 16.11° C | 88% | 1017.9 hPa | - | - | - | - |
| 1777918322 | 16.11° C | 87% | 1017.9 hPa | - | - | - | - |
| 1777917121 | 17.78° C | 75% | 1017.8 hPa | - | - | - | - |
| 1777915920 | 18.89° C | 68% | 1017.6 hPa | - | - | - | - |
| 1777914719 | 20° C | 60% | 1017.4 hPa | - | - | - | - |
| 1777913517 | 22.22° C | 46% | 1017 hPa | - | - | - | - |
| 1777912316 | 22.78° C | 36% | 1016.9 hPa | - | - | - | - |
| 1777911109 | 23.33° C | 37% | 1017 hPa | - | - | - | - |
| 1777909903 | 23.33° C | 40% | 1017 hPa | - | - | - | - |
* Rain since midnight (hover to see other rain measurements)
** Current wind speed in m/s (hover to see current wind gust speed)